Regional Weather Roundup
Issued by NWS Cleveland, OH

Home | Current Version | Previous Version | Graphics & Text | Print | Product List | Glossary On
Versions: 1 2 3 4 5 6 7 8 9 10 11 12 13 14 15 16 17 18 19 20 21 22 23 24 25 26 27 28 29 30 31 32 33 34 35 36 37 38 39 40 41 42 43 44 45 46 47 48 49 50
000
ASUS41 KCLE 271710
RWRCLE
OHIO REGIONAL WEATHER ROUNDUP
NATIONAL WEATHER SERVICE WILMINGTON, OH
100 PM EDT TUE JUN 27 2017

NOTE: "FAIR" INDICATES FEW OR NO CLOUDS BELOW 12,000 FEET WITH NO
SIGNIFICANT WEATHER AND/OR OBSTRUCTIONS TO VISIBILITY.

OHZ001>008-015>018-024>027-034-035-043-044-271800-
   NORTHWEST OHIO

CITY           SKY/WX    TMP DP  RH WIND       PRES   REMARKS
DEFIANCE       PTSUNNY   66  44  45 NW7       30.12F
FINDLAY        FAIR      66  43  43 N9        30.12S
TOLEDO EXPRESS FAIR      68  42  38 W12       30.10F
TOLEDO EXEC    FAIR      69  44  40 NW10      30.11S
LIMA           FAIR      65  44  46 N8        30.13F
$$

OHZ009>014-019>023-028>033-038-089-271800-
   NORTHEAST OHIO

CITY           SKY/WX    TMP DP  RH WIND       PRES   REMARKS
CLE-HOPKINS    FAIR      68  49  50 W16G22    30.11S
CLE-LAKEFRONT  FAIR      65  51  60 W12       30.08S
CUY CO. ARPT   NOT AVBL
LORAIN-ELYRIA  FAIR      65  44  46 NW12      30.11R
ASHTABULA      PTSUNNY   61  51  70 NW12G25   30.07S
AKRON-CANTON   PTSUNNY   66  48  52 NW12      30.09S
WOOSTER        FAIR      65  45  48 NW13      30.11S
MANSFIELD      PTSUNNY   63  46  54 W9        30.12S
YOUNGSTOWN     PTSUNNY   62  49  62 W12G24    30.07S
$$

OHZ042-051>053-060>062-070>072-077>081-271800-
  SOUTHWEST OHIO

CITY           SKY/WX    TMP DP  RH WIND       PRES   REMARKS
CINC-COVINGTON FAIR      69  50  50 NW8       30.15F
CINC-LUNKEN    FAIR      70  48  45 CALM      30.15F
HAMILTON       FAIR      70  51  51 W8        30.15F
DAYTON         PTSUNNY   65  47  52 NW8       30.15F
WRIGHT-PAT AFB FAIR      67  49  53 N8        30.14S
DAYTON GENERAL PTSUNNY   67  49  52 NW9       30.14F
WILMINGTON     PTSUNNY   67  50  54 NW9       30.14F
$$

OHZ036-037-039>041-045>050-054>059-063>069-073>076-082>088-271800-
  CENTRAL AND SOUTHEAST OHIO

CITY           SKY/WX    TMP DP  RH WIND       PRES   REMARKS
COLUMBUS       FAIR      68  50  52 VRB3      30.12F
OSU AIRPORT    PTSUNNY   67  52  58 NW8       30.12F
BOLTON FIELD   MOSUNNY   66  48  52 W5        30.13F
RICKENBACK AFB PTSUNNY   67  49  52 W12G18    30.13S
NEWARK         FAIR      70  46  42 W9        30.12F
MARION         FAIR      65  43  44 N10       30.13S
LANCASTER      PTSUNNY   66  50  56 NW8       30.13F
ZANESVILLE     PTSUNNY   67  48  50 NW10      30.12S
NEW PHILLY     PTSUNNY   67  47  48 NW10G21   30.11S
$$




USA.gov is the U.S. government's official web portal to all federal, state and local government web resources and services.